RH
27 33 34 59 74 72 100 97 90 93 100 100 95 86 78 61 61 50 36 30 27 21 19 17 14 12 8 7 8 12 9 6 8 5 4 3 3 17 63 66 55 50 31 26
24 22 49 72 78 85 100 100 77 97 100 98 96 92 92 81 69 52 38 31 25 22 21 16 14 10 11 19 15 12 7 8 8 6 4 3 4 22 67 70 62 57 34 20
14 22 36 46 68 88 100 97 94 100 100 89 87 79 90 92 87 67 39 30 22 21 19 25 32 23 34 30 23 17 8 10 9 7 4 3 3 25 67 80 62 52 36 19
4 6 17 32 31 96 78 97 100 98 100 74 100 73 94 97 91 88 64 45 38 28 24 21 17 39 40 15 16 10 9 10 13 7 4 3 5 46 65 74 68 51 33 20
3 3 5 10 34 100 59 100 99 96 95 91 88 90 81 100 90 89 98 61 40 41 32 20 12 10 10 11 11 8 14 21 18 7 3 2 5 49 68 81 81 54 33 20
2 2 2 2 12 65 83 100 100 100 100 97 68 100 88 100 98 100 86 82 86 69 43 24 20 15 11 10 9 13 23 21 17 7 3 2 9 60 75 90 84 56 34 22
2 25 75 87 13 12 58 100 100 100 94 55 94 100 81 100 100 100 95 70 86 94 58 44 40 33 19 15 12 15 31 23 14 5 3 2 16 56 85 89 80 54 39 22
4 4 87 76 90 89 90 66 94 99 100 90 100 97 90 100 91 94 95 89 69 74 69 53 38 38 40 35 29 37 33 20 9 5 3 2 16 57 93 92 84 61 41 24
56 35 100 98 99 99 95 49 81 100 100 99 92 100 98 96 78 86 99 87 73 67 81 80 53 52 37 40 46 31 22 22 11 5 3 3 15 40 85 93 72 69 38 25
28 100 100 99 95 100 97 50 97 100 97 88 100 100 100 85 86 100 96 84 85 95 66 50 43 48 39 38 24 20 23 23 14 6 4 3 12 40 70 87 70 70 45 26
19 82 91 100 98 93 89 100 96 96 96 99 100 98 100 100 92 99 95 100 99 79 74 78 93 91 68 60 52 34 23 15 14 7 4 3 9 23 57 87 70 72 44 27
79 99 100 100 100 94 58 100 100 100 89 98 100 100 96 97 100 96 94 98 95 80 67 63 58 55 52 43 46 57 34 18 14 10 4 3 4 19 60 83 86 78 41 27
84 89 100 100 100 96 68 95 100 100 100 100 100 97 100 100 100 100 100 90 78 83 76 65 57 51 48 47 42 40 43 26 16 12 5 3 3 15 68 89 91 76 42 28
25 48 61 100 99 100 100 100 99 99 100 100 100 100 99 99 100 100 95 96 85 63 54 51 50 46 43 42 38 36 40 35 22 9 7 4 3 21 63 82 90 78 47 27
37 77 98 97 24 100 100 100 100 98 98 97 100 100 100 100 100 100 90 78 64 49 48 44 42 39 36 35 34 33 33 35 24 13 7 3 3 18 63 79 88 81 49 25
100 100 95 100 100 100 82 100 100 100 100 97 100 96 100 100 100 83 69 54 45 45 40 38 36 34 33 30 28 28 29 27 20 10 4 3 3 7 58 86 89 84 54 26
99 92 94 79 100 96 88 29 69 99 100 100 100 89 100 100 90 67 55 46 41 37 30 26 27 28 26 25 25 25 23 18 13 4 2 3 3 14 72 95 90 80 58 28
84 86 85 71 82 98 100 100 100 100 88 92 84 72 55 79 71 59 50 37 30 26 31 27 19 18 15 15 18 19 17 11 7 3 8 21 7 60 97 96 90 82 71 30
100 100 100 100 100 100 71 99 43 42 20 71 86 72 50 30 30 35 22 20 24 19 15 12 24 24 14 10 12 13 12 3 3 21 32 22 25 99 99 91 95 96 90 38
100 100 100 95 99 96 100 97 98 18 14 23 24 36 39 39 19 27 20 18 27 58 38 26 15 12 13 11 8 8 7 3 6 45 57 55 65 98 93 92 97 99 97 51
100 99 100 84 86 98 100 100 90 83 100 95 67 40 50 37 55 83 74 60 58 72 56 19 5 6 6 6 6 6 5 4 27 37 91 78 64 97 100 96 96 95 99 70
97 87 90 100 87 100 95 75 100 100 99 94 91 100 100 100 100 98 98 97 90 84 37 15 12 13 18 32 38 28 9 20 49 42 80 78 80 86 97 96 97 96 98 92
100 100 85 78 93 96 97 99 98 100 100 100 100 100 100 97 89 75 74 83 79 89 72 35 12 16 60 68 64 81 55 43 62 42 79 92 96 97 94 96 96 97 97 97
100 100 100 100 100 100 100 100 100 100 100 100 97 98 98 94 82 76 82 78 85 95 100 69 58 31 100 98 83 93 94 56 69 80 82 97 96 98 93 95 96 95 99 98
100 100 100 100 100 100 98 99 100 100 100 100 94 81 69 66 66 75 78 64 56 81 100 100 80 89 100 100 99 100 100 62 71 99 95 90 97 97 97 90 90 87 99 100
100 100 100 100 100 100 100 96 86 78 88 94 85 71 73 74 77 79 98 93 87 63 84 100 100 100 100 100 96 96 100 91 83 99 100 100 97 98 97 99 100 99 94 92
Wind_Speed
43 42 46 50 51 50 53 56 58 54 56 38 53 56 52 49 52 56 48 47 48 48 47 48 47 47 43 42 40 41 37 37 37 36 37 35 33 32 31 29 26 24 25 27
43 43 43 46 49 51 54 57 56 58 56 46 56 58 52 51 53 60 49 46 45 46 49 46 44 43 43 44 43 41 38 38 36 36 37 35 32 32 31 30 26 24 26 26
43 42 46 46 46 50 54 56 55 59 49 56 60 61 58 57 55 53 49 45 44 48 46 51 46 48 49 49 45 45 41 37 35 39 36 37 31 33 31 27 27 23 26 28
43 43 43 47 49 49 52 52 55 59 59 62 50 57 51 53 54 60 49 46 46 45 47 48 49 50 50 48 46 45 41 40 38 40 35 36 30 34 34 29 28 24 27 29
47 46 47 47 47 48 46 52 55 57 59 57 56 54 49 25 38 52 52 47 41 44 45 45 46 47 48 46 45 44 41 40 39 41 35 35 32 35 35 28 29 25 27 29
53 46 45 52 45 47 48 47 52 58 57 59 51 44 39 30 32 27 42 47 48 46 44 42 44 45 47 45 45 41 43 41 41 41 34 33 33 36 34 30 29 25 28 29
49 41 35 36 45 44 45 45 45 51 56 53 36 38 45 29 29 27 39 46 45 48 48 48 47 46 46 47 43 44 42 40 42 40 35 33 34 36 33 33 30 25 28 30
51 47 30 34 38 34 35 40 43 45 44 41 36 36 29 35 38 44 48 31 33 40 43 44 46 48 50 49 50 44 44 42 41 40 35 32 36 35 34 34 30 26 27 30
40 38 28 34 34 29 29 39 32 35 30 34 32 21 38 40 43 46 48 46 45 39 42 46 48 49 47 47 46 45 44 42 40 37 34 31 37 37 37 35 29 28 28 29
39 31 27 26 31 24 27 31 29 35 38 42 32 28 33 38 42 39 44 45 39 39 39 43 45 49 50 47 42 43 45 44 42 38 34 33 38 40 39 34 28 29 30 28
32 28 28 24 22 30 30 29 30 33 35 37 29 35 27 28 27 30 35 35 37 39 40 42 45 43 45 50 53 47 44 45 43 39 37 35 40 43 41 35 30 30 31 29
22 25 23 22 27 30 38 29 28 26 23 30 37 27 25 33 39 35 37 38 39 39 36 37 38 40 43 44 48 48 47 44 45 41 39 35 39 46 40 36 33 32 31 29
20 17 15 11 20 25 32 48 35 29 32 29 26 24 27 30 36 38 38 40 35 32 34 36 37 38 40 44 45 46 48 45 46 42 40 37 37 46 40 36 35 32 31 28
20 19 20 17 20 25 28 38 39 42 33 30 25 31 21 35 16 23 41 37 35 35 35 36 39 40 41 40 44 45 49 48 42 40 41 40 38 45 44 38 37 33 31 30
9 14 18 22 25 27 24 24 26 40 36 34 29 21 20 18 21 24 33 38 42 43 42 42 42 43 43 42 43 44 42 48 43 42 41 40 39 44 46 40 38 35 31 31
2 13 15 17 18 23 37 32 23 30 32 34 30 39 35 36 26 43 44 43 41 41 45 47 48 48 48 41 42 45 42 43 44 43 43 41 42 46 47 42 39 36 33 32
9 10 11 16 13 21 24 35 37 30 30 33 37 33 30 38 40 43 43 42 45 48 49 49 51 52 51 44 42 42 43 40 43 43 44 42 44 49 48 43 41 38 34 33
4 7 10 9 8 11 8 14 25 34 42 30 31 32 35 42 46 42 42 49 52 51 49 48 48 50 51 45 43 41 41 40 42 43 40 40 47 50 48 45 45 39 36 34
9 9 12 10 7 7 3 6 13 30 43 42 38 37 46 50 43 43 51 47 45 44 46 48 46 45 46 43 40 41 40 41 40 35 36 42 47 51 49 46 45 40 38 36
5 5 6 5 6 8 11 6 10 7 14 39 51 47 48 50 50 52 48 44 37 30 33 37 41 43 41 38 39 39 42 43 37 37 38 41 48 53 50 45 45 39 39 38
2 2 6 4 4 5 9 8 8 8 9 15 19 22 18 19 14 15 19 21 22 24 25 27 34 37 37 37 36 40 43 42 40 43 44 39 50 52 50 47 46 45 43 40
8 5 6 4 6 6 8 3 2 5 6 7 6 5 5 3 6 9 14 14 20 19 21 22 24 28 28 28 32 38 44 40 43 45 49 41 51 54 48 49 44 46 42 45
9 12 7 9 6 3 2 5 7 1 5 9 6 2 2 3 6 9 12 13 16 18 20 21 22 26 26 29 29 34 39 42 42 44 43 54 55 61 49 46 45 38 43 44
6 10 13 11 3 2 2 4 5 15 8 4 4 4 5 7 11 15 17 18 17 18 20 20 24 29 25 26 34 31 36 36 38 41 38 48 55 48 47 43 39 40 39 41
2 2 4 10 8 2 1 2 7 8 7 1 3 4 8 12 11 15 20 20 20 20 19 22 25 29 24 24 31 30 31 34 39 37 40 47 51 56 56 45 43 41 38 38
2 5 1 5 8 7 4 4 1 0 2 6 4 8 11 12 14 19 22 18 15 18 21 20 24 24 25 19 17 17 18 30 34 27 45 48 44 51 58 48 47 45 44 42
Wind_Direction
269 269 267 264 261 258 256 256 256 254 253 253 250 251 247 249 253 253 250 249 250 252 254 253 257 257 256 253 253 258 259 259 266 272 275 285 288 265 260 266 273 282 274 272
271 270 266 264 259 256 256 253 253 254 252 254 251 248 248 248 246 252 251 250 249 251 252 253 252 257 249 255 257 258 258 259 262 270 274 283 281 264 259 261 267 281 278 269
271 269 267 265 262 259 256 257 255 256 256 254 254 252 249 246 247 250 252 248 245 247 251 254 251 247 255 255 255 258 256 257 266 270 273 282 280 260 259 258 261 273 276 273
270 268 266 264 265 259 260 260 258 258 259 260 258 259 253 249 244 242 247 248 247 245 246 250 251 253 252 251 252 254 255 258 265 267 272 280 275 254 255 255 265 271 272 271
273 267 265 261 260 261 261 256 258 258 259 258 256 257 257 241 253 248 243 242 242 248 246 245 247 248 248 248 251 250 251 256 261 266 269 278 271 252 256 258 267 269 272 271
276 277 266 262 256 257 253 260 260 259 259 259 259 253 247 240 238 240 245 241 245 246 247 245 244 246 249 250 248 244 249 257 259 264 267 277 267 250 255 259 266 268 271 270
275 270 265 273 263 258 259 256 264 255 257 263 258 245 249 223 228 229 250 247 243 242 245 247 248 247 246 247 244 244 249 256 260 259 263 273 257 248 251 257 265 266 266 267
273 265 264 262 260 262 257 260 258 259 255 266 259 237 246 224 207 206 226 233 242 242 244 244 246 247 249 251 251 251 251 253 257 256 262 271 250 246 250 256 262 262 262 265
266 258 243 249 239 239 253 259 272 261 230 232 227 226 225 226 229 230 239 251 253 252 247 245 247 248 251 250 249 250 248 252 255 254 260 266 250 245 248 253 254 260 256 262
270 267 249 227 248 231 254 253 246 231 236 239 237 216 230 244 243 239 243 246 253 252 250 247 249 248 246 248 248 248 251 253 254 254 256 258 246 248 248 250 251 254 257 259
268 266 263 237 242 262 232 232 244 237 238 235 236 229 214 241 249 249 247 246 246 248 249 254 254 255 256 253 250 247 251 251 254 255 251 254 244 248 250 245 246 252 250 259
254 253 257 243 229 237 224 209 217 233 236 244 240 232 235 241 249 253 255 255 255 256 258 257 256 254 255 255 252 247 249 250 252 254 251 252 247 247 247 243 246 248 246 254
253 253 263 271 226 260 227 235 228 217 220 235 227 222 230 203 233 245 242 255 261 264 264 263 261 257 254 254 255 250 247 250 249 250 249 254 252 247 243 239 244 247 243 251
247 244 248 248 216 238 236 247 255 245 223 201 195 220 222 227 198 229 245 251 265 272 273 271 271 264 260 258 257 253 248 251 249 245 249 254 252 244 241 237 239 242 240 248
255 243 252 258 229 238 260 241 250 254 248 239 209 210 229 218 230 239 244 261 275 280 281 279 275 269 264 263 261 258 253 254 254 248 250 252 249 242 237 236 237 237 237 247
269 268 280 287 281 255 244 231 249 233 244 249 239 231 231 251 260 259 262 269 275 279 279 280 279 276 273 269 265 261 255 254 251 250 250 253 251 243 235 231 234 234 234 243
278 283 286 283 265 270 256 227 234 239 231 236 240 238 231 237 245 253 260 270 277 279 279 280 279 275 273 272 264 261 257 253 252 253 253 257 243 236 229 226 230 231 234 240
255 276 278 284 289 299 325 256 231 239 236 236 246 247 258 259 260 265 273 275 274 275 276 274 274 273 272 272 268 262 255 252 251 253 254 247 231 227 222 223 227 227 232 239
332 292 306 283 293 316 265 271 263 238 233 242 243 245 252 258 259 266 267 270 272 272 270 269 265 267 269 268 263 261 257 250 247 246 241 236 228 219 221 223 225 224 231 237
355 347 323 331 316 334 342 290 261 266 228 236 238 239 242 253 266 270 276 273 273 268 264 256 253 257 259 257 255 255 253 250 243 234 235 233 225 219 223 223 222 223 230 234
35 26 20 18 352 357 320 290 282 267 232 237 237 237 254 253 260 272 281 275 267 268 269 265 252 246 244 244 246 247 250 249 239 233 235 234 222 220 225 224 229 226 232 232
48 30 78 10 354 289 318 185 232 234 199 197 221 316 47 215 254 238 294 293 262 282 270 257 254 249 240 234 236 242 242 241 235 234 229 224 223 218 223 227 232 231 238 232
49 52 76 82 71 45 91 185 152 250 280 227 144 35 351 181 281 288 290 291 273 287 270 255 249 242 234 235 241 238 240 234 237 234 236 223 229 215 229 232 236 235 237 241
16 63 90 106 118 332 201 261 4 16 115 177 209 231 261 286 303 314 306 294 289 283 269 256 251 238 243 246 246 244 237 236 232 236 235 200 220 216 226 226 228 235 244 242
5 26 58 96 130 187 100 359 348 50 124 342 265 309 309 312 316 324 327 304 294 285 271 255 249 242 246 247 251 240 235 236 232 228 218 227 197 206 221 225 229 241 243 244
310 289 268 151 133 146 211 244 207 289 313 328 309 282 289 304 298 319 329 314 287 272 273 272 266 251 233 237 220 236 224 234 227 197 196 212 210 201 205 225 235 228 243 238